Wind_Speed
46 45 42 38 36 34 31 28 27 28 32 34 34 35 35 32 29 26 27 30 31 31 30 29 29 28 28 29 31 32 29 28 29 33 37 33 29 26 21 20 19 17 16 16 18 19 20 22 22 21 21 19 18 17 16 16 15 15 16 16 15 15 15 14 14 14 14 14 14 15 15 15 14 14 13 12 12 12 12 13 13 14 15 15 16 16
47 45 42 37 34 33 31 29 28 29 32 34 35 35 35 33 31 28 27 28 30 32 32 32 30 29 28 29 31 32 30 28 26 31 37 35 30 25 19 18 17 16 16 16 16 17 19 20 22 23 23 22 21 19 18 17 17 16 16 16 15 14 14 14 14 14 14 15 15 16 16 16 16 15 14 14 13 13 13 13 14 15 16 16 16 16
49 46 41 38 36 35 33 30 29 30 32 34 35 35 34 33 32 30 28 28 29 31 32 32 31 30 29 29 31 33 31 27 25 29 36 32 27 24 20 19 18 16 16 16 16 16 17 19 21 22 23 23 22 20 19 18 17 16 16 15 15 15 14 14 15 15 15 15 16 17 18 18 17 16 16 16 15 15 15 15 15 16 17 17 17 17
49 46 42 40 38 36 35 32 30 31 32 34 35 35 34 32 31 29 29 29 29 30 31 32 31 32 32 31 33 34 31 27 23 26 32 26 23 23 23 23 20 18 16 15 15 15 16 19 20 21 22 22 21 21 20 19 18 16 16 16 15 15 14 15 16 16 16 16 17 18 19 18 18 18 17 17 17 17 17 17 17 18 18 18 18 18
48 45 42 40 39 37 35 33 32 32 32 33 34 34 33 31 30 29 28 28 29 31 32 32 33 35 34 34 35 33 31 28 25 27 29 24 22 23 25 27 22 17 16 15 14 15 17 19 20 21 22 21 21 21 20 20 19 17 16 16 16 15 15 15 16 17 17 17 18 19 19 19 19 19 19 19 18 18 18 19 19 19 19 19 19 19
49 45 42 41 40 38 37 34 33 33 32 32 33 33 32 32 31 29 29 29 30 32 33 32 34 36 35 34 35 33 31 28 27 29 28 25 24 21 19 22 22 17 17 15 14 15 17 18 20 21 22 22 21 22 21 21 20 18 17 16 16 16 16 16 17 17 18 18 19 20 21 21 21 21 21 21 21 21 20 20 20 20 20 20 20 20
49 45 43 42 41 39 37 36 34 33 32 32 32 32 33 33 31 30 30 32 32 32 31 32 35 36 34 34 34 33 32 29 27 28 27 24 26 24 17 14 16 15 15 15 14 16 16 17 18 19 20 22 23 23 23 22 20 19 17 16 15 15 16 17 18 18 19 20 21 21 22 22 22 23 23 23 23 23 23 23 22 21 21 20 20 21
49 46 45 44 42 41 39 37 36 34 33 32 31 32 33 32 30 30 32 33 33 31 31 33 36 36 34 34 34 33 32 30 27 26 25 23 25 27 22 15 11 11 13 14 15 16 16 16 18 17 16 18 22 22 22 21 20 19 17 16 16 16 17 18 19 19 20 21 22 22 23 24 24 24 24 25 25 26 25 25 24 23 22 22 21 22
48 46 45 44 43 42 39 37 36 35 34 31 31 32 33 32 31 31 33 34 33 33 33 34 36 37 35 35 35 34 32 29 26 25 24 23 23 25 24 19 12 9 10 12 13 14 16 16 17 17 14 13 16 18 19 20 20 19 18 17 17 17 19 20 21 20 20 21 22 23 24 25 25 25 26 26 26 26 26 26 26 25 24 24 24 23
46 44 44 43 42 40 38 37 36 34 32 31 32 34 35 36 36 35 35 35 34 36 36 36 36 37 36 35 34 33 29 26 24 23 21 20 21 22 21 17 12 9 10 12 13 14 16 17 18 18 15 13 14 16 18 19 19 19 19 18 18 19 21 22 22 22 22 22 23 24 25 25 25 26 27 27 27 27 27 27 26 26 26 26 25 25
46 44 44 44 43 40 37 36 35 34 31 31 33 35 36 38 38 37 36 36 37 39 38 37 37 38 37 35 34 31 26 22 22 21 18 17 17 20 19 14 11 10 11 13 14 15 17 18 18 19 17 16 16 17 18 19 20 21 21 21 21 22 23 24 24 24 23 24 25 25 26 26 26 27 27 27 27 26 26 27 27 27 27 27 27 27
46 45 45 45 44 42 39 37 36 35 33 34 36 36 36 37 37 37 38 38 40 40 38 37 38 39 39 36 32 30 25 23 23 20 18 17 15 16 17 16 14 12 12 12 14 14 16 18 19 19 18 16 16 17 18 20 21 22 23 22 22 22 23 23 24 24 25 26 26 27 27 28 29 29 29 28 28 27 27 27 27 28 28 29 29 29
46 46 47 46 45 44 42 40 39 38 38 38 39 39 38 38 38 39 40 41 42 41 38 38 39 40 40 35 32 30 26 24 24 23 20 18 15 14 14 15 15 14 13 12 13 13 15 17 19 20 19 17 17 19 20 21 22 22 22 21 22 22 23 23 24 25 26 27 27 28 29 30 31 31 32 31 31 30 29 28 29 29 29 30 30 30
48 48 48 48 47 45 44 43 42 41 42 42 42 42 42 42 41 42 42 42 43 42 38 38 39 41 40 37 32 30 27 25 25 25 20 17 15 14 12 13 15 16 16 15 15 16 17 18 19 21 21 21 21 22 21 22 23 23 22 23 24 24 24 24 25 26 27 28 28 29 29 31 32 33 34 34 33 33 32 32 32 32 31 31 31 32
47 48 50 50 49 47 46 45 42 40 41 41 42 44 44 43 43 42 42 43 43 41 38 38 40 43 42 37 32 29 28 26 26 26 23 18 15 15 14 15 16 17 18 17 18 19 21 21 20 20 21 21 21 21 20 20 22 23 24 25 25 24 25 25 26 27 29 29 29 29 30 31 33 34 35 35 35 35 35 35 35 34 33 33 33 33
45 46 48 48 48 47 47 46 43 42 42 42 44 45 44 43 43 43 43 43 42 41 38 38 41 43 41 36 31 29 28 27 27 27 25 21 17 16 16 16 17 18 18 19 19 21 23 23 20 19 19 19 19 19 19 20 21 22 23 24 24 24 26 27 28 29 30 30 30 31 31 32 33 34 35 36 36 37 37 37 36 36 35 35 35 35
45 45 46 46 45 44 45 45 44 44 44 45 46 45 44 44 44 44 44 44 43 42 41 40 41 42 40 36 33 31 30 29 29 28 27 25 21 19 18 18 18 18 19 20 21 22 23 22 20 19 19 19 19 20 20 21 22 22 22 23 24 25 27 28 29 30 31 32 32 32 32 33 33 35 36 37 38 38 38 38 38 38 38 37 37 37
44 44 44 44 44 43 43 43 43 43 43 44 44 43 44 45 44 44 46 46 45 45 44 42 41 42 40 37 34 32 30 29 29 29 29 27 23 21 21 20 20 20 20 21 21 23 25 23 22 21 21 21 22 22 22 22 22 22 22 23 24 26 28 29 30 30 31 32 33 33 33 33 34 35 36 38 39 39 39 39 40 40 39 39 39 38
42 42 41 42 42 42 43 43 44 45 44 43 42 43 45 46 44 44 47 47 47 47 46 44 43 42 41 38 34 31 29 28 29 30 29 27 25 23 23 22 21 21 22 22 23 24 26 25 24 24 24 24 24 24 24 24 23 23 24 25 26 27 28 29 30 31 32 33 34 34 34 34 35 36 37 39 40 40 41 41 42 41 41 40 40 39
43 41 40 40 41 41 43 45 46 46 45 45 44 45 46 46 45 45 46 46 46 46 46 45 44 42 38 35 32 30 29 29 30 30 29 27 26 25 24 23 22 22 23 24 25 26 27 26 26 26 26 26 25 25 25 25 25 26 27 28 29 29 29 29 30 31 33 33 34 35 35 36 36 37 39 40 41 41 42 43 43 43 42 42 41 40
42 41 40 40 41 43 45 46 45 44 44 45 46 47 48 48 48 47 48 47 47 47 47 47 46 41 37 34 31 30 31 32 32 33 31 29 28 27 26 25 24 24 25 26 27 28 27 26 26 26 26 26 25 25 26 27 28 30 32 32 32 31 31 30 31 32 33 33 34 35 36 37 38 39 40 42 42 43 43 43 44 44 44 43 42 42
42 41 40 40 41 43 44 43 42 41 41 42 43 44 45 46 47 48 49 49 49 50 49 49 47 43 39 37 34 32 33 33 33 34 33 31 30 30 29 28 27 27 28 29 30 29 28 27 28 28 27 27 28 29 31 33 35 35 35 35 34 33 32 31 31 32 32 33 34 35 36 38 39 41 42 43 43 44 44 44 44 45 45 44 44 43
41 40 40 40 41 41 41 40 40 40 39 39 41 42 43 44 45 46 47 47 47 49 49 48 48 45 41 39 37 35 34 33 33 33 33 32 32 32 31 30 30 30 31 32 31 30 30 30 30 30 30 31 34 36 38 40 40 38 36 35 35 33 32 31 31 32 33 33 34 35 37 39 40 41 42 43 44 44 44 45 46 46 46 45 45 45
41 40 40 40 40 40 40 40 39 40 40 41 42 43 44 45 45 45 45 44 45 46 46 47 47 46 43 41 39 37 35 34 33 33 32 32 33 33 33 32 32 33 34 34 33 32 32 32 31 31 33 35 38 40 41 41 40 37 35 34 34 32 31 31 31 32 33 34 35 37 39 40 41 42 43 44 44 44 45 46 46 46 46 46 46 45
41 41 41 41 42 41 41 41 41 42 44 43 43 43 44 44 45 45 45 46 47 46 46 48 49 48 46 44 41 38 36 35 34 34 34 33 33 33 34 34 34 34 35 35 35 33 32 32 32 33 35 36 38 38 38 37 36 35 34 33 32 32 31 31 31 32 34 35 37 38 40 41 42 43 43 44 44 44 45 46 46 46 47 47 46 46
39 40 41 42 43 44 44 44 44 44 44 44 43 43 43 44 45 45 46 47 48 47 47 49 50 49 47 45 43 41 39 37 36 36 36 35 35 35 36 36 36 35 35 35 33 32 33 33 34 35 34 34 35 35 34 34 34 34 33 32 32 31 31 31 32 33 35 36 38 39 41 42 43 43 43 43 44 44 45 45 46 46 47 46 46 46
39 39 40 41 41 41 41 41 41 41 42 43 44 43 43 43 44 45 46 47 47 47 47 48 49 49 48 46 44 43 41 40 39 39 38 37 36 36 36 36 36 36 35 34 33 34 35 35 34 34 33 33 33 32 31 31 31 31 32 32 32 32 32 32 33 34 35 37 38 40 41 42 43 43 43 43 44 44 45 45 46 46 46 45 45 45
39 39 40 40 40 40 40 40 40 41 41 42 43 43 43 42 43 45 47 47 47 47 48 47 47 48 48 47 45 44 43 43 42 41 40 39 38 37 37 37 37 37 36 35 35 35 35 34 33 33 33 33 32 31 29 29 29 29 30 31 31 32 33 33 34 35 36 37 38 40 41 42 42 42 43 43 44 44 44 44 45 44 44 44 43 43
39 39 39 40 40 40 40 40 40 41 41 41 41 42 42 42 43 44 45 46 46 46 46 45 46 47 48 48 47 46 46 45 44 42 41 40 39 39 39 38 38 37 36 35 35 35 35 34 33 33 33 32 31 30 29 29 29 29 30 30 31 32 33 34 35 35 36 37 38 39 40 41 41 42 43 43 43 43 44 44 43 43 42 42 42 42
39 38 39 39 39 39 40 40 40 40 41 41 40 40 40 40 41 41 43 44 45 45 44 45 45 47 48 49 48 48 47 46 45 43 41 40 39 39 39 38 37 36 35 35 36 36 35 35 34 34 33 32 31 30 29 29 30 30 31 31 32 32 33 34 35 35 36 37 38 39 40 40 41 41 42 42 42 43 43 42 42 41 42 42 41 41
39 38 39 39 39 39 39 39 39 40 40 41 40 39 39 39 40 41 42 43 44 44 44 45 45 46 47 48 47 47 47 45 44 42 41 40 40 39 38 37 36 35 35 35 36 36 36 35 35 34 34 33 31 29 29 29 30 30 30 30 31 32 33 34 35 35 35 36 37 38 38 39 39 40 40 41 41 41 40 40 40 41 41 40 40 40
39 38 39 40 40 40 40 39 39 39 40 40 41 40 39 39 39 40 41 42 43 44 45 46 46 46 46 46 46 45 45 44 42 41 41 41 41 41 40 38 37 36 36 37 37 36 36 35 34 33 34 33 31 31 31 31 30 30 29 30 30 31 33 33 34 34 34 35 36 37 37 38 38 39 40 40 39 39 39 39 40 39 39 39 40 41
40 39 39 39 40 40 39 39 39 39 40 41 41 40 39 38 38 38 39 40 41 42 44 45 45 45 45 45 44 43 43 42 41 41 41 42 42 42 42 40 38 37 37 37 37 36 36 35 34 34 34 34 33 34 34 33 32 31 31 31 31 31 31 32 32 33 33 34 35 36 37 37 38 38 38 38 38 38 38 38 38 38 38 40 41 41
40 39 39 39 39 39 39 39 39 40 41 41 40 39 39 38 37 37 38 39 40 41 42 42 43 44 44 44 43 41 40 39 39 40 40 40 41 42 41 39 37 36 36 36 36 36 36 36 35 34 34 34 34 33 32 32 32 32 32 32 31 31 31 31 32 32 33 34 35 35 36 37 37 37 36 37 37 37 37 37 37 38 39 39 40 40
39 39 39 39 39 38 39 39 40 42 41 39 38 38 38 38 37 37 38 38 39 40 41 42 42 42 42 42 42 41 39 38 38 39 39 38 38 38 37 36 35 34 34 34 34 34 34 34 33 32 32 31 31 30 31 31 32 32 32 31 31 30 30 31 31 32 33 34 34 35 35 35 35 36 36 36 36 36 35 36 36 37 37 37 37 37
39 39 40 40 40 40 40 41 42 41 39 37 37 37 37 37 37 36 35 36 36 37 38 39 40 40 40 41 41 41 40 39 39 39 39 38 37 36 35 34 34 34 34 34 33 33 34 33 33 31 30 29 30 30 31 31 31 31 30 29 29 29 30 31 32 32 33 33 34 34 34 35 35 35 35 35 34 34 35 35 35 35 35 34 34 35
38 40 40 40 41 41 41 42 41 39 37 36 36 36 36 37 37 36 35 34 34 34 35 35 36 37 38 39 40 41 41 41 41 41 39 38 37 36 36 35 35 35 35 34 34 34 35 34 33 32 31 31 32 31 30 30 30 29 28 28 29 30 30 31 32 32 33 33 33 33 34 34 34 34 34 33 33 34 34 34 33 33 33 33 34 36
38 40 41 40 41 42 41 41 40 40 38 36 34 34 35 36 37 37 37 36 35 34 34 34 35 36 36 38 39 41 43 43 43 42 40 39 37 37 37 37 37 37 36 36 36 36 35 34 33 33 32 32 32 31 30 30 29 28 28 29 30 30 31 31 32 32 32 33 33 33 33 33 33 32 32 32 32 32 32 31 31 31 32 34 35 37
37 39 41 42 41 41 41 41 41 41 39 36 35 35 36 36 37 37 38 37 36 35 35 36 35 35 35 35 36 39 41 41 41 42 43 42 41 41 40 40 39 38 38 38 38 37 35 33 33 33 33 33 32 31 30 29 29 28 29 29 30 30 31 32 32 32 33 33 33 33 32 32 32 31 31 31 31 30 30 29 29 30 32 34 36 37
36 39 42 44 44 43 42 42 42 42 40 38 37 36 36 36 37 37 37 36 34 35 37 37 37 37 36 36 36 36 36 35 37 40 43 44 44 44 42 41 40 40 39 38 38 37 34 33 32 32 32 32 31 30 29 28 28 29 29 29 30 30 31 32 32 33 33 33 32 32 31 31 30 29 29 29 29 28 27 28 29 31 33 35 36 37
36 39 42 45 45 45 44 43 43 43 42 40 39 38 37 38 39 38 35 32 32 34 36 36 37 38 38 37 36 35 33 32 35 38 41 43 44 43 42 41 41 40 38 37 36 35 33 33 33 33 32 32 30 29 28 28 29 29 29 29 30 31 31 32 32 32 32 32 31 31 29 28 28 28 28 27 26 26 27 28 30 32 34 35 36 37
33 37 41 45 47 47 47 46 46 46 45 43 42 42 41 41 40 37 34 33 34 35 36 36 37 37 37 37 37 35 33 33 34 35 37 38 39 39 39 38 37 37 36 35 34 33 32 33 33 33 32 30 29 28 28 29 29 29 29 30 30 31 31 31 31 31 31 30 29 28 27 26 26 26 26 25 25 25 27 29 31 32 33 34 35 36
29 33 37 43 48 50 50 50 49 47 45 43 42 41 40 38 36 35 35 36 37 37 37 37 37 37 37 38 37 36 34 33 33 33 32 32 33 33 34 35 36 37 36 33 31 31 31 33 34 32 30 29 28 28 29 28 29 29 29 30 30 30 30 30 30 30 29 28 26 25 25 25 25 24 24 23 24 26 28 30 31 32 33 34 34 34
27 30 33 37 43 48 50 49 47 44 42 40 39 37 36 35 34 33 34 35 36 36 36 36 37 37 37 37 37 36 34 34 34 33 32 32 32 32 32 33 34 33 31 30 30 30 31 31 31 30 29 28 28 29 28 28 29 29 29 29 29 29 29 29 29 27 26 25 24 24 24 24 23 23 22 23 25 27 29 30 31 32 32 32 32 32
28 30 32 34 36 40 43 44 43 41 39 37 35 32 32 32 31 30 31 31 32 32 32 33 34 35 35 36 36 35 35 35 35 35 35 35 34 32 30 28 27 27 27 28 28 28 28 28 28 28 28 29 28 28 28 28 29 29 29 29 29 28 28 27 26 24 24 24 24 23 23 22 22 22 22 24 26 28 29 30 30 31 31 30 31 31
29 30 32 34 34 34 35 36 36 36 35 33 31 30 30 31 30 29 29 29 29 29 29 30 31 31 33 34 35 35 36 36 36 36 36 37 35 32 28 25 23 24 25 26 26 26 25 26 27 28 29 28 28 28 28 28 28 29 28 28 27 27 26 25 23 23 23 23 22 22 22 21 21 22 23 25 27 28 29 30 30 29 29 29 29 31
30 30 31 32 32 32 31 31 32 32 32 31 31 31 31 32 30 29 29 28 28 27 27 27 27 28 29 31 33 35 36 37 37 36 36 35 33 30 27 24 22 22 23 24 25 26 26 27 28 29 29 28 28 27 28 28 28 28 27 27 26 25 24 23 22 22 22 22 21 21 21 21 22 23 25 26 28 29 29 29 28 28 27 27 29 30
28 29 30 30 30 31 31 31 31 32 31 31 30 30 30 31 30 29 28 28 27 26 26 25 25 25 25 27 29 32 34 35 35 34 33 32 30 28 26 24 23 23 24 25 27 27 26 27 27 27 27 27 27 27 27 28 27 27 26 26 25 24 22 21 21 21 21 21 20 20 20 21 23 24 26 27 28 28 28 28 27 26 25 26 28 29
26 27 29 29 29 30 30 31 31 32 32 31 30 30 29 29 29 28 28 27 26 25 24 24 25 25 25 25 27 28 30 31 31 30 30 30 29 28 26 24 24 25 27 28 27 27 26 26 26 27 27 26 26 26 27 27 27 26 25 24 23 22 21 20 20 20 20 20 20 20 21 22 24 25 27 27 28 27 27 26 25 24 25 26 27 27
26 26 28 29 30 31 32 33 34 33 32 32 31 30 29 28 27 27 27 26 25 24 24 25 27 27 27 26 25 26 27 27 27 27 27 28 28 26 25 25 26 27 28 28 26 27 28 28 27 27 26 25 25 26 27 26 26 25 24 23 21 20 19 19 19 19 19 19 19 20 22 23 25 26 27 27 26 26 25 23 23 23 24 26 26 27
22 23 25 27 28 30 31 33 34 33 32 30 29 28 28 28 27 27 27 26 25 24 23 24 25 26 26 25 24 24 24 24 24 25 25 26 26 25 26 27 27 25 25 25 25 27 29 27 25 25 25 25 26 27 27 25 24 23 22 21 20 19 19 18 18 18 18 18 20 21 23 24 25 26 26 25 25 24 22 21 21 23 24 25 26 26
Wind_Direction
214 213 213 215 219 220 220 219 214 207 207 206 207 211 213 214 212 203 203 215 223 229 232 233 237 239 236 234 237 242 242 243 248 238 226 223 219 215 213 215 219 218 216 218 223 227 230 232 232 232 233 235 240 242 242 245 248 249 248 250 251 253 256 260 262 265 266 267 268 270 273 275 278 282 286 291 296 298 300 304 306 306 308 309 311 312
214 213 211 212 217 219 219 217 212 209 208 207 206 210 213 214 214 208 202 209 218 226 230 232 234 235 231 231 235 242 243 242 246 232 217 211 207 200 194 205 213 209 209 212 216 224 229 231 233 234 236 238 240 240 241 246 249 250 251 252 253 254 257 261 265 267 268 269 271 272 273 273 275 277 279 282 287 291 294 297 299 300 302 305 308 310
213 212 209 209 213 216 216 213 211 210 209 208 207 208 210 213 216 214 207 206 212 221 229 232 233 232 230 231 235 242 243 243 245 229 214 206 197 190 189 206 215 208 211 218 221 230 234 235 237 237 239 240 240 240 241 247 250 251 252 253 254 256 259 263 267 270 270 270 270 271 271 271 272 274 277 279 283 287 290 293 295 296 299 302 305 306
213 211 207 208 210 213 213 211 210 211 210 208 207 206 208 211 215 218 213 209 209 215 224 229 231 230 230 231 234 239 240 239 235 220 216 212 199 202 207 210 213 208 209 215 219 229 234 238 240 238 238 239 240 241 243 249 253 254 253 255 258 260 263 265 268 271 271 271 270 269 270 270 271 274 277 280 283 285 288 290 293 294 296 299 302 302
214 211 207 207 209 211 211 210 210 212 211 209 208 206 206 210 215 220 220 216 214 215 219 223 227 228 228 229 232 235 236 233 226 215 218 220 215 224 223 214 212 205 199 202 211 225 232 236 239 239 239 238 240 243 247 252 256 258 258 259 264 267 269 272 273 275 276 276 276 274 273 273 274 275 276 278 280 283 285 287 289 290 292 295 298 300
213 209 207 208 209 210 209 208 209 212 212 210 208 206 205 208 214 220 223 223 221 219 218 221 227 229 228 231 233 235 235 232 229 226 228 230 228 226 219 214 215 208 201 205 219 234 238 240 242 242 243 241 241 244 248 253 257 261 264 266 270 274 277 280 279 280 281 282 281 280 280 280 279 279 279 280 281 282 283 283 284 286 289 292 295 296
212 208 207 207 208 209 209 207 208 210 211 209 206 203 203 207 212 220 224 225 225 224 223 223 228 231 231 234 236 236 235 232 232 232 232 234 230 221 218 226 222 214 217 224 233 240 243 249 247 245 248 244 240 243 247 253 258 262 267 271 274 277 280 282 283 284 285 285 285 284 284 283 282 282 283 284 284 283 283 283 282 284 287 289 291 291
211 207 206 207 207 208 208 207 208 209 210 208 203 200 200 204 213 221 224 226 226 226 226 226 229 233 232 233 236 235 234 234 234 233 230 231 230 227 234 249 238 224 234 237 240 241 244 256 254 253 261 249 237 240 246 251 257 262 267 272 274 277 280 282 284 284 285 286 285 285 284 284 284 284 285 285 285 285 285 285 284 284 285 286 286 287
211 208 207 208 208 208 207 207 208 210 209 204 199 198 199 203 211 219 223 225 226 226 227 228 230 233 233 233 235 235 235 237 236 233 231 233 235 235 238 245 244 239 241 239 241 241 243 254 258 260 268 255 239 241 246 250 255 259 265 270 273 277 280 282 283 283 282 282 282 282 282 283 284 284 284 284 285 286 287 287 286 286 285 286 286 286
211 209 208 209 209 209 208 207 208 209 207 200 196 196 199 203 207 213 219 222 224 226 227 229 231 234 236 236 237 238 238 240 239 234 234 239 242 237 232 236 239 236 243 243 242 246 247 250 256 259 260 253 247 246 248 252 257 261 264 268 272 277 280 282 282 280 278 277 277 278 279 280 282 282 283 284 285 286 287 288 288 287 287 287 287 287
211 209 208 209 208 207 207 207 207 206 203 198 196 197 200 204 206 210 216 219 223 226 226 228 232 234 237 238 238 242 241 240 237 231 230 240 242 233 230 240 249 243 242 240 239 248 255 255 256 258 258 255 253 251 252 255 259 264 267 271 275 278 280 280 280 278 276 275 275 276 277 279 280 282 283 284 286 287 288 289 289 288 288 288 288 287
210 208 208 209 208 205 203 204 205 203 199 196 197 198 201 204 206 210 214 217 223 226 224 227 231 235 238 238 237 240 239 233 226 219 219 229 236 233 236 249 258 254 245 237 236 244 255 261 261 258 257 258 260 262 264 263 264 266 270 274 277 277 278 278 277 277 276 275 276 278 280 281 282 284 284 285 286 288 289 290 290 290 289 289 289 289
209 209 208 208 208 206 203 202 202 200 197 196 197 198 201 203 205 209 213 216 222 224 222 225 230 235 238 238 236 237 236 229 220 215 218 225 230 233 239 250 256 257 250 243 245 250 257 263 264 261 258 260 268 273 273 271 268 267 270 274 276 276 277 276 276 276 274 274 276 278 280 282 283 284 285 286 287 288 288 289 289 289 288 289 289 289
206 207 208 208 207 206 205 203 203 201 199 198 198 200 202 203 206 209 212 216 221 223 221 224 230 236 238 236 234 233 234 228 217 215 220 227 233 238 242 248 252 252 251 253 263 274 276 273 268 265 263 265 272 275 273 270 268 268 270 273 275 276 276 275 275 275 273 272 273 275 278 280 282 283 285 287 288 289 289 289 289 288 288 290 291 291
206 207 207 208 207 205 205 205 203 202 203 202 200 202 205 207 208 211 214 218 222 224 223 224 230 236 237 235 234 232 232 230 222 220 223 226 234 243 245 247 249 251 257 266 278 285 287 283 276 270 267 269 272 272 269 266 265 267 270 273 275 276 275 274 273 272 271 271 271 273 275 278 280 283 285 287 288 289 290 290 290 290 291 293 295 296
208 209 209 209 208 206 206 204 201 199 200 201 201 204 208 209 210 212 216 219 222 225 225 225 230 236 237 236 235 233 232 231 229 227 226 225 229 239 244 248 253 258 264 273 281 286 288 286 280 272 270 270 271 271 270 268 268 269 270 273 275 276 275 274 273 272 271 270 270 272 274 277 280 282 285 286 287 288 290 291 291 293 295 296 298 299
207 209 209 210 208 207 208 206 204 201 200 200 202 207 210 208 209 212 216 219 223 226 227 227 230 235 237 235 234 234 234 233 233 233 233 231 229 234 242 249 255 261 267 273 280 285 287 286 278 271 270 270 270 272 272 272 272 272 272 273 273 274 274 274 273 273 272 271 271 271 274 276 279 281 283 285 287 289 291 293 294 296 297 297 298 298
207 208 209 209 208 207 208 207 205 205 204 204 207 210 209 207 210 214 216 219 222 226 229 230 231 233 234 233 232 233 234 235 238 241 240 238 235 236 244 250 256 262 268 273 279 282 284 285 278 269 267 267 268 270 272 272 271 271 271 272 272 272 272 273 274 274 273 272 271 271 273 275 277 280 282 285 287 290 293 295 296 296 297 297 297 297
206 208 209 210 208 207 208 207 206 206 205 206 208 209 208 209 215 218 218 221 224 227 231 232 233 233 233 232 231 232 234 238 243 244 244 245 243 242 245 252 259 264 268 271 275 279 282 284 279 271 268 267 268 269 269 270 270 271 272 273 274 274 273 273 273 273 273 272 271 271 271 273 277 280 282 285 288 291 293 294 295 295 296 297 298 297
206 206 207 208 207 207 208 209 210 210 207 205 204 206 207 211 216 221 223 226 228 231 234 236 238 237 236 236 234 231 233 237 239 241 245 249 248 245 248 255 262 266 267 268 270 274 279 282 279 274 271 269 268 268 269 270 273 275 277 277 277 276 275 274 273 272 272 271 271 270 270 273 276 280 282 285 288 291 292 293 293 295 297 298 298 297
207 205 205 206 206 207 210 211 212 213 211 209 207 206 207 208 212 218 223 226 228 232 235 239 242 243 241 240 237 232 232 234 235 237 243 246 246 246 249 255 260 262 262 265 268 271 275 278 278 275 272 270 270 271 272 276 279 282 282 280 279 278 276 275 272 271 271 271 270 270 270 273 276 279 281 284 287 289 290 291 293 295 297 298 299 299
205 205 205 206 206 208 211 212 211 212 213 213 213 213 211 211 213 216 221 225 227 230 234 237 242 244 243 242 241 236 234 235 237 240 243 246 246 246 249 254 257 258 261 267 270 270 271 273 274 275 275 274 275 276 277 280 283 285 282 279 279 279 277 275 273 272 272 271 270 269 269 271 274 277 280 283 286 288 289 291 293 295 297 299 300 301
204 204 206 207 207 207 209 210 209 211 212 213 215 216 215 216 217 219 224 228 229 232 236 239 242 244 245 245 244 243 241 240 241 243 247 249 250 249 252 255 258 260 265 270 271 269 270 272 273 274 277 280 281 281 281 281 284 285 282 280 281 280 276 274 273 272 272 272 270 269 269 271 273 276 280 283 286 287 289 290 293 296 298 299 301 301
204 204 206 208 207 206 208 208 207 208 210 210 212 214 215 217 219 221 225 230 232 235 239 242 243 244 245 247 248 248 248 247 247 248 249 251 252 253 254 257 260 262 265 268 267 267 270 272 274 276 281 284 284 283 282 282 283 283 282 281 281 278 273 272 272 272 272 271 270 270 270 272 275 278 281 284 285 286 288 291 294 297 298 300 301 301
205 204 205 207 207 205 206 206 206 207 209 210 211 213 216 217 218 220 222 226 229 233 236 240 242 243 243 246 248 250 251 251 252 253 253 254 254 255 257 259 260 262 263 266 268 268 270 274 277 282 285 286 284 283 282 281 281 280 280 280 279 276 272 271 272 271 271 271 271 271 273 275 277 280 282 284 285 286 289 292 295 297 298 299 300 301
207 206 206 208 209 208 207 208 207 207 210 210 210 212 215 217 219 220 222 224 228 230 233 236 239 242 242 243 245 248 251 253 254 255 256 256 257 258 260 262 263 264 265 266 268 269 273 277 281 283 283 282 281 280 279 279 278 278 278 278 278 276 274 273 273 272 272 272 273 274 275 277 279 281 283 284 285 288 291 294 296 297 298 299 300 301
207 205 207 210 212 212 211 212 210 210 213 214 214 214 215 217 219 221 223 226 228 230 233 235 238 241 243 244 245 247 249 252 255 256 257 257 258 260 262 264 266 267 267 267 268 271 275 278 280 280 280 279 279 279 278 278 278 278 277 277 277 277 276 275 274 274 274 274 275 276 277 279 280 282 283 284 287 290 293 295 296 297 298 299 300 301
206 204 204 207 211 211 211 211 211 211 214 217 218 218 218 218 219 221 223 226 228 230 232 236 239 241 243 245 247 248 250 252 255 257 257 257 258 259 261 263 265 266 267 269 271 274 276 277 277 277 278 278 278 279 279 280 280 279 279 278 277 276 275 275 274 274 275 275 276 277 279 280 282 283 285 287 290 292 294 295 296 297 298 300 301 302
206 205 203 205 208 209 210 210 210 211 212 215 217 218 219 221 222 223 225 227 228 231 233 236 240 242 244 246 248 249 251 253 255 256 256 256 257 258 260 262 264 266 268 270 272 274 275 276 276 278 279 278 278 280 282 282 282 282 281 280 278 277 275 275 275 275 275 276 277 278 280 281 283 285 288 290 292 294 295 296 297 298 300 301 303 304
205 204 203 204 206 208 209 209 209 210 212 213 215 216 217 220 223 225 227 228 230 232 234 236 239 241 244 246 248 249 251 253 255 256 256 257 258 259 260 261 262 264 266 269 271 273 275 276 278 280 280 279 279 282 283 284 283 283 282 281 279 277 276 276 276 276 276 277 278 280 281 283 286 288 290 292 293 294 295 296 298 300 302 303 304 305
204 204 203 203 205 207 209 209 209 210 212 213 215 215 215 217 220 222 224 227 229 231 233 235 237 240 242 245 247 249 251 253 255 256 258 259 261 262 263 264 265 266 268 270 272 274 277 279 281 281 281 280 280 282 284 285 285 284 283 281 279 277 276 276 276 276 277 278 280 282 284 286 288 290 290 291 293 294 295 297 300 302 304 305 306 306
205 204 203 202 204 205 207 209 210 210 211 214 215 216 216 217 218 220 222 224 227 230 232 235 236 239 241 244 247 249 250 252 253 255 257 259 262 265 266 268 269 270 272 273 274 277 279 280 281 282 281 281 281 282 284 286 284 282 282 281 279 277 276 276 277 278 279 281 282 285 286 288 288 289 290 291 293 295 297 300 303 305 306 306 306 307
206 204 203 203 203 204 206 208 210 211 211 213 215 216 217 217 219 221 222 223 225 228 231 234 237 239 241 243 246 249 251 253 254 255 257 259 262 265 266 268 270 272 273 275 277 278 279 280 281 282 282 283 284 284 285 285 281 278 278 279 278 277 276 277 278 279 281 283 284 285 286 287 288 289 291 293 295 298 301 303 305 306 306 306 306 307
208 205 203 203 203 204 206 208 211 213 213 213 215 216 217 217 219 222 224 224 225 227 230 233 236 238 240 242 245 247 251 254 255 256 256 258 260 263 265 268 271 273 275 277 278 278 279 280 282 282 282 283 284 284 284 283 280 278 277 277 277 277 277 278 279 280 281 282 283 284 286 287 289 291 293 295 298 301 303 304 305 305 306 306 307 307
209 206 204 203 203 204 206 208 212 216 215 214 215 217 218 219 220 222 225 226 228 229 230 233 235 238 240 242 244 246 249 252 255 257 258 259 261 263 265 268 272 275 276 277 277 278 280 281 282 283 283 282 282 282 282 282 281 278 276 276 276 276 276 277 278 279 280 282 283 285 287 289 292 294 296 299 301 303 304 304 304 305 306 307 308 309
210 209 207 204 203 205 207 210 214 217 217 215 215 216 218 220 220 221 224 227 229 230 232 234 237 239 240 242 245 247 249 252 254 256 257 260 262 264 266 269 272 274 276 275 276 279 281 282 283 284 282 281 282 283 282 281 279 277 275 274 274 274 275 276 278 279 282 284 286 288 290 292 294 296 299 301 302 302 303 303 304 306 306 307 308 309
211 211 210 208 206 207 210 213 216 218 219 218 218 218 218 220 222 224 225 227 228 230 233 236 238 241 242 244 246 248 250 252 253 254 256 259 261 264 266 268 270 272 274 274 276 280 284 284 283 282 282 284 286 285 282 279 276 274 273 273 274 275 276 278 280 283 285 286 288 290 292 294 296 299 300 301 301 302 303 304 305 306 307 308 310 312
213 212 211 211 211 212 213 215 217 220 220 220 222 222 222 223 224 225 226 227 228 230 233 236 239 242 243 245 247 249 250 251 252 255 258 260 262 264 265 267 268 271 273 273 276 282 285 284 282 281 283 286 286 283 279 275 272 271 272 273 275 277 279 281 283 284 286 287 289 292 294 296 298 299 299 300 301 303 304 305 306 308 310 312 314 315
214 212 211 212 213 214 215 216 219 221 222 223 223 225 227 227 228 228 228 227 228 231 234 236 239 241 244 247 250 251 252 253 255 257 259 261 263 264 266 268 270 272 273 273 276 280 283 282 281 281 282 284 283 278 273 270 268 270 272 274 276 278 280 282 283 284 286 288 291 294 296 297 297 298 299 300 302 303 305 306 308 311 313 314 315 316
215 213 212 212 214 215 217 219 221 223 224 224 224 225 228 230 232 233 231 228 229 233 237 239 241 243 246 249 251 253 255 258 258 258 258 259 261 263 266 269 272 274 275 275 276 278 280 280 281 281 281 280 276 271 267 266 267 270 272 275 277 279 280 282 283 285 287 290 293 294 295 295 296 298 299 301 303 304 306 308 311 314 315 316 316 316
217 215 214 214 216 218 219 221 224 226 227 228 228 230 231 233 236 238 237 236 236 239 242 244 245 246 247 249 251 254 256 258 258 257 257 259 261 264 267 269 270 272 273 275 276 276 276 279 280 278 275 272 268 264 263 265 268 270 273 275 278 279 281 282 284 286 288 291 292 292 293 294 297 299 301 302 304 306 309 312 314 315 316 316 317 317
219 219 217 217 218 220 222 223 224 227 229 230 232 234 236 238 241 244 246 248 249 249 250 250 249 249 249 248 249 250 252 255 257 257 258 259 261 263 265 266 268 270 273 274 274 272 274 276 275 270 265 262 260 260 262 266 268 271 274 277 279 280 281 283 285 287 288 289 289 290 293 295 298 300 302 303 305 308 312 314 315 316 316 317 317 318
222 222 222 221 220 222 224 225 227 229 232 235 239 242 245 249 252 254 255 254 254 253 252 250 249 248 247 246 246 247 248 250 253 256 257 258 259 260 261 263 266 268 270 271 270 270 272 271 266 260 256 256 258 260 263 266 269 273 276 278 279 281 282 283 284 285 286 287 288 291 294 297 299 300 302 304 307 310 313 315 316 316 317 317 318 320
227 226 227 228 228 227 228 230 232 235 238 243 247 252 255 257 257 256 254 252 252 251 249 247 246 245 243 243 244 244 245 247 250 253 254 257 259 261 263 265 266 266 267 267 267 267 266 263 258 254 253 255 258 261 264 267 271 275 277 279 279 280 281 282 282 283 285 287 290 293 295 297 299 300 303 306 309 312 314 315 316 317 317 318 319 321
235 233 233 235 236 235 234 235 237 239 242 247 252 255 255 254 251 249 249 249 249 249 248 246 245 243 242 241 241 243 245 247 251 253 254 257 260 262 265 267 265 262 262 262 260 258 255 252 251 250 252 255 257 261 265 270 274 277 277 277 278 278 279 280 281 283 286 289 291 294 295 297 298 300 304 308 311 313 315 316 317 317 317 318 320 322
240 240 239 238 238 238 236 236 238 241 244 248 251 251 250 249 247 247 248 249 250 251 250 246 243 241 240 240 241 244 246 249 252 254 255 256 257 259 264 265 261 259 259 258 254 251 248 247 248 249 251 253 257 263 269 273 275 276 276 276 277 278 278 280 281 284 287 290 292 294 294 296 298 302 306 310 312 314 316 317 318 317 317 319 321 323
241 240 238 235 234 236 236 236 239 242 244 246 247 247 248 248 247 246 247 249 251 253 251 245 239 238 239 240 243 246 248 251 253 254 255 254 253 254 259 258 252 251 250 248 248 249 249 248 248 247 249 254 261 268 272 273 273 274 274 276 276 277 277 279 282 285 287 290 291 292 293 297 301 305 308 311 313 315 317 317 317 316 317 318 321 323
237 235 233 232 232 233 235 237 239 242 243 244 245 246 246 247 247 248 249 250 252 252 248 241 235 233 237 241 245 247 248 250 251 252 251 250 248 249 250 248 244 244 243 242 244 247 246 245 246 248 254 261 267 271 272 271 272 273 274 274 274 275 277 280 282 284 286 288 289 292 295 299 303 307 310 313 315 316 316 316 315 315 316 319 322 324
233 231 231 233 234 235 237 239 241 243 244 243 243 245 247 248 248 248 247 248 248 247 245 239 233 233 238 243 245 246 247 247 247 247 246 245 244 244 244 242 242 243 243 241 243 247 249 251 255 260 264 267 269 269 270 271 271 272 272 271 272 274 277 280 281 282 284 286 289 293 298 302 306 309 312 314 316 315 315 314 313 314 316 319 322 324
230 231 233 236 236 237 238 239 239 241 241 240 241 244 244 243 242 242 242 242 241 241 240 238 236 237 241 243 243 244 244 243 242 241 240 240 240 240 240 242 243 244 244 243 247 253 258 260 263 264 265 265 267 268 269 269 269 268 268 269 271 274 277 278 278 280 283 287 291 296 300 305 308 311 313 315 315 314 313 313 312 314 318 321 322 324
224 227 231 233 236 237 238 238 238 237 236 237 240 241 240 239 239 239 239 238 237 236 236 236 236 237 238 237 236 238 240 240 240 240 239 238 237 235 237 241 245 246 247 250 255 260 261 261 261 262 263 266 268 268 268 266 264 264 265 267 271 273 273 273 275 279 284 289 294 299 303 307 310 312 313 314 314 313 312 313 314 317 320 321 322 325
Height
5732 5736 5740 5746 5750 5754 5756 5759 5762 5764 5765 5768 5771 5773 5776 5778 5781 5786 5789 5789 5790 5790 5792 5795 5796 5797 5799 5801 5802 5802 5805 5808 5809 5809 5809 5810 5812 5813 5815 5817 5818 5820 5821 5823 5824 5825 5826 5827 5828 5829 5830 5831 5832 5833 5834 5835 5835 5835 5835 5836 5838 5838 5839 5839 5839 5840 5840 5839 5839 5839 5839 5838 5838 5837 5837 5837 5836 5835 5835 5834 5834 5833 5832 5832 5831 5831
5728 5733 5739 5745 5749 5752 5754 5757 5760 5761 5763 5765 5768 5771 5773 5776 5778 5783 5786 5788 5789 5789 5790 5791 5793 5794 5796 5799 5799 5799 5802 5805 5808 5809 5807 5806 5807 5809 5812 5814 5816 5818 5819 5821 5822 5823 5825 5826 5826 5827 5828 5829 5830 5831 5832 5833 5834 5834 5834 5834 5836 5837 5837 5837 5837 5838 5838 5838 5838 5837 5837 5837 5836 5836 5835 5835 5834 5833 5833 5833 5832 5831 5831 5830 5830 5829
5725 5731 5738 5742 5745 5748 5751 5754 5757 5759 5761 5763 5766 5769 5771 5774 5776 5779 5783 5786 5787 5788 5788 5789 5791 5792 5794 5796 5796 5796 5799 5803 5805 5807 5806 5806 5806 5807 5809 5811 5814 5816 5818 5819 5821 5822 5823 5824 5825 5825 5826 5827 5828 5829 5830 5831 5832 5832 5832 5833 5834 5835 5835 5836 5836 5836 5836 5836 5836 5836 5835 5835 5834 5834 5833 5832 5832 5831 5831 5831 5830 5829 5829 5828 5828 5827
5722 5729 5735 5738 5741 5744 5747 5751 5754 5756 5758 5761 5764 5767 5770 5772 5774 5776 5780 5784 5786 5787 5787 5788 5789 5790 5792 5793 5793 5795 5798 5800 5802 5805 5807 5809 5809 5808 5807 5808 5811 5813 5816 5818 5820 5821 5822 5822 5823 5824 5825 5825 5826 5827 5828 5829 5830 5831 5831 5831 5832 5833 5834 5834 5834 5834 5834 5835 5835 5834 5834 5833 5832 5832 5831 5830 5829 5829 5828 5828 5828 5827 5826 5826 5825 5824
5721 5728 5732 5735 5738 5741 5745 5749 5752 5754 5756 5759 5762 5766 5769 5771 5772 5774 5777 5781 5784 5785 5785 5787 5787 5787 5789 5790 5791 5793 5796 5798 5801 5803 5805 5807 5808 5808 5806 5806 5808 5811 5814 5816 5817 5818 5819 5820 5821 5822 5823 5824 5825 5825 5826 5827 5828 5829 5829 5830 5830 5831 5832 5833 5833 5832 5832 5832 5832 5832 5832 5831 5831 5830 5829 5828 5827 5827 5826 5826 5825 5824 5824 5823 5823 5822
5718 5725 5730 5732 5736 5739 5743 5747 5749 5752 5754 5757 5761 5765 5767 5768 5770 5772 5775 5777 5780 5782 5784 5785 5785 5784 5787 5788 5789 5792 5794 5796 5799 5800 5803 5805 5807 5808 5807 5806 5807 5809 5812 5813 5815 5816 5817 5818 5819 5820 5821 5822 5823 5823 5824 5825 5825 5826 5827 5828 5828 5829 5829 5830 5830 5830 5830 5830 5830 5829 5829 5829 5828 5827 5826 5826 5825 5825 5824 5824 5823 5822 5821 5820 5820 5819
5715 5722 5726 5729 5733 5736 5740 5744 5747 5750 5752 5755 5759 5763 5765 5766 5768 5770 5772 5774 5776 5779 5782 5783 5782 5782 5785 5786 5788 5790 5791 5794 5797 5798 5801 5804 5806 5807 5807 5807 5807 5808 5810 5811 5813 5814 5815 5816 5816 5817 5818 5819 5821 5821 5822 5823 5823 5824 5825 5825 5826 5826 5827 5827 5827 5827 5827 5827 5827 5827 5826 5826 5826 5825 5824 5823 5823 5822 5822 5821 5821 5820 5819 5818 5817 5817
5712 5719 5723 5726 5729 5733 5738 5742 5745 5747 5750 5754 5758 5761 5763 5765 5767 5768 5770 5772 5774 5777 5779 5780 5779 5780 5782 5784 5785 5787 5789 5791 5795 5797 5800 5802 5804 5806 5807 5808 5807 5807 5808 5810 5811 5812 5813 5814 5814 5815 5816 5816 5818 5819 5820 5821 5821 5822 5822 5823 5824 5824 5825 5825 5825 5825 5825 5825 5825 5825 5824 5824 5823 5823 5822 5821 5820 5819 5819 5819 5818 5817 5816 5815 5815 5814
5711 5717 5721 5724 5727 5731 5736 5740 5743 5746 5748 5753 5757 5759 5761 5763 5765 5767 5768 5770 5772 5774 5775 5776 5777 5777 5779 5781 5783 5785 5787 5790 5793 5796 5798 5800 5802 5804 5805 5806 5805 5805 5806 5808 5809 5810 5811 5812 5812 5813 5814 5814 5815 5817 5818 5818 5819 5820 5820 5821 5822 5822 5823 5823 5823 5823 5823 5823 5823 5822 5822 5821 5821 5820 5820 5819 5818 5817 5816 5815 5815 5814 5813 5813 5812 5811
5709 5715 5719 5722 5726 5730 5735 5738 5741 5744 5748 5752 5754 5756 5758 5760 5762 5764 5765 5767 5769 5770 5771 5773 5775 5775 5777 5780 5781 5783 5787 5790 5793 5794 5796 5799 5800 5801 5803 5803 5803 5804 5805 5806 5807 5808 5809 5810 5810 5811 5812 5813 5814 5814 5815 5816 5817 5817 5818 5818 5819 5820 5820 5821 5821 5821 5821 5821 5821 5820 5820 5819 5819 5818 5817 5817 5816 5814 5813 5813 5812 5811 5811 5810 5809 5808
5707 5712 5716 5719 5723 5728 5732 5735 5738 5742 5746 5749 5752 5753 5755 5757 5759 5761 5762 5765 5765 5765 5768 5771 5772 5773 5775 5777 5779 5782 5786 5790 5791 5792 5795 5796 5797 5798 5801 5801 5802 5803 5804 5805 5806 5806 5806 5807 5808 5809 5810 5811 5812 5812 5813 5814 5815 5815 5815 5816 5817 5817 5818 5818 5818 5818 5818 5818 5818 5818 5818 5817 5816 5816 5815 5814 5814 5812 5812 5811 5810 5809 5808 5807 5806 5805
5703 5708 5712 5716 5720 5723 5727 5731 5735 5739 5742 5746 5748 5750 5752 5754 5757 5758 5760 5761 5760 5761 5766 5769 5770 5771 5771 5774 5778 5781 5785 5787 5788 5790 5792 5793 5795 5797 5799 5800 5800 5801 5802 5803 5804 5805 5805 5806 5806 5807 5808 5809 5809 5810 5811 5812 5813 5813 5813 5814 5814 5815 5815 5815 5815 5815 5815 5815 5815 5815 5815 5814 5814 5813 5813 5812 5812 5811 5810 5809 5808 5807 5806 5805 5804 5802
5699 5704 5708 5712 5716 5719 5723 5727 5730 5734 5737 5741 5743 5746 5748 5750 5752 5754 5755 5756 5756 5759 5765 5767 5767 5767 5767 5772 5776 5778 5781 5784 5786 5788 5789 5791 5793 5795 5796 5797 5798 5799 5800 5801 5802 5803 5804 5804 5805 5805 5806 5807 5808 5809 5809 5810 5810 5811 5811 5811 5812 5812 5812 5812 5812 5812 5812 5812 5812 5812 5812 5812 5811 5810 5810 5809 5809 5809 5808 5807 5806 5805 5804 5802 5801 5800
5694 5699 5703 5707 5711 5715 5719 5723 5726 5730 5733 5736 5739 5741 5743 5745 5747 5748 5751 5752 5754 5757 5762 5765 5765 5763 5764 5769 5773 5776 5779 5781 5783 5785 5786 5788 5790 5792 5794 5794 5795 5796 5798 5799 5800 5800 5801 5802 5803 5803 5804 5805 5806 5806 5807 5807 5807 5808 5809 5809 5809 5809 5809 5809 5809 5809 5809 5809 5809 5809 5809 5809 5808 5807 5807 5806 5806 5805 5804 5804 5803 5802 5801 5800 5798 5797
5692 5695 5699 5703 5707 5712 5716 5720 5725 5729 5732 5735 5738 5739 5741 5743 5745 5747 5749 5751 5753 5756 5761 5763 5762 5759 5761 5767 5771 5775 5777 5779 5781 5783 5784 5786 5787 5789 5790 5791 5793 5794 5795 5797 5797 5798 5799 5799 5800 5801 5801 5802 5803 5803 5804 5804 5804 5805 5806 5806 5806 5806 5807 5807 5806 5806 5806 5806 5806 5806 5806 5806 5805 5804 5803 5803 5802 5801 5801 5800 5799 5798 5797 5796 5795 5793
5690 5694 5698 5702 5706 5710 5713 5717 5722 5726 5730 5733 5735 5737 5739 5741 5744 5746 5749 5750 5753 5756 5759 5760 5758 5756 5760 5767 5771 5774 5775 5777 5779 5781 5782 5784 5785 5786 5788 5789 5790 5792 5793 5794 5795 5795 5796 5796 5797 5798 5798 5799 5800 5800 5801 5801 5801 5802 5802 5802 5803 5803 5803 5803 5803 5803 5803 5803 5804 5804 5803 5803 5802 5801 5800 5800 5799 5798 5797 5796 5796 5794 5793 5792 5791 5789
5687 5692 5696 5701 5706 5710 5713 5716 5719 5722 5726 5729 5731 5734 5737 5740 5742 5745 5747 5749 5752 5753 5754 5756 5755 5755 5760 5766 5769 5771 5774 5776 5777 5779 5781 5782 5783 5784 5785 5787 5788 5789 5790 5792 5792 5793 5793 5794 5795 5795 5796 5797 5797 5797 5798 5798 5799 5799 5799 5799 5800 5800 5800 5800 5800 5800 5800 5800 5801 5801 5800 5800 5799 5798 5797 5796 5795 5794 5794 5793 5792 5791 5790 5788 5787 5786
5686 5690 5694 5699 5704 5708 5711 5715 5718 5721 5725 5727 5730 5734 5737 5739 5741 5743 5744 5746 5748 5749 5750 5752 5753 5755 5759 5763 5766 5770 5772 5775 5777 5778 5780 5780 5781 5783 5783 5785 5786 5787 5788 5789 5791 5791 5791 5792 5793 5793 5793 5794 5794 5795 5795 5795 5796 5796 5796 5796 5796 5797 5797 5797 5797 5797 5797 5797 5797 5797 5797 5796 5795 5795 5794 5792 5791 5790 5790 5789 5788 5787 5786 5785 5783 5782
5684 5688 5693 5697 5702 5706 5709 5711 5714 5717 5722 5726 5730 5733 5735 5737 5739 5740 5740 5742 5744 5745 5746 5748 5750 5753 5756 5760 5765 5770 5772 5774 5776 5777 5779 5780 5780 5781 5782 5783 5784 5785 5787 5788 5789 5789 5789 5790 5790 5790 5791 5791 5791 5792 5792 5792 5793 5793 5793 5793 5793 5793 5793 5794 5794 5794 5794 5794 5794 5793 5793 5792 5792 5791 5790 5789 5788 5787 5786 5785 5784 5783 5782 5781 5780 5778
5681 5685 5690 5695 5699 5703 5705 5707 5710 5714 5718 5721 5725 5728 5731 5734 5736 5738 5739 5740 5742 5743 5744 5746 5747 5750 5755 5760 5765 5769 5770 5772 5774 5775 5777 5778 5778 5779 5780 5781 5782 5784 5785 5786 5786 5787 5787 5787 5788 5788 5788 5788 5789 5789 5789 5790 5790 5790 5790 5790 5790 5790 5790 5790 5790 5790 5790 5790 5790 5789 5789 5789 5788 5787 5786 5785 5785 5783 5782 5781 5780 5779 5778 5777 5775 5774
5679 5683 5687 5691 5695 5698 5700 5704 5709 5712 5716 5719 5721 5723 5726 5729 5732 5735 5736 5738 5740 5741 5742 5743 5744 5749 5755 5759 5763 5766 5767 5769 5771 5772 5774 5775 5776 5777 5778 5779 5780 5781 5783 5783 5784 5785 5785 5785 5785 5785 5786 5786 5787 5787 5787 5787 5787 5787 5787 5787 5787 5787 5787 5787 5786 5786 5786 5786 5786 5786 5785 5785 5785 5784 5783 5782 5781 5780 5779 5777 5776 5775 5773 5772 5771 5769
5676 5681 5685 5688 5692 5695 5699 5704 5709 5712 5716 5719 5721 5723 5725 5728 5730 5732 5733 5734 5736 5738 5739 5740 5742 5747 5752 5756 5759 5762 5764 5765 5767 5769 5770 5772 5773 5774 5776 5777 5778 5779 5780 5781 5781 5782 5783 5782 5782 5783 5783 5784 5784 5784 5784 5784 5784 5784 5783 5783 5783 5783 5783 5783 5783 5782 5782 5782 5782 5782 5782 5782 5781 5780 5779 5778 5777 5776 5775 5773 5772 5771 5769 5768 5766 5764
5674 5679 5683 5686 5690 5694 5698 5702 5707 5710 5714 5717 5720 5723 5725 5727 5729 5730 5731 5733 5735 5737 5738 5739 5741 5745 5749 5752 5755 5758 5760 5763 5765 5766 5768 5769 5770 5772 5773 5775 5776 5776 5777 5778 5779 5779 5779 5779 5779 5780 5781 5781 5781 5781 5780 5780 5779 5779 5779 5779 5779 5779 5779 5779 5779 5779 5779 5779 5779 5779 5778 5778 5777 5776 5775 5774 5773 5772 5770 5769 5768 5766 5765 5763 5761 5759
5672 5677 5680 5684 5688 5692 5696 5699 5703 5706 5709 5712 5715 5718 5721 5723 5726 5729 5731 5734 5735 5736 5737 5739 5740 5742 5746 5749 5752 5755 5757 5759 5761 5763 5765 5766 5768 5769 5770 5772 5773 5773 5774 5774 5775 5776 5776 5776 5777 5777 5778 5778 5777 5777 5776 5776 5775 5774 5774 5775 5775 5775 5775 5775 5775 5775 5775 5775 5775 5775 5775 5774 5773 5773 5772 5770 5769 5768 5766 5765 5763 5762 5760 5758 5756 5754
5670 5674 5677 5681 5684 5688 5691 5694 5698 5701 5703 5707 5711 5714 5717 5720 5723 5726 5728 5730 5731 5733 5735 5736 5736 5739 5743 5746 5749 5751 5754 5756 5758 5760 5762 5763 5765 5766 5768 5769 5770 5770 5771 5771 5772 5773 5773 5774 5774 5775 5775 5774 5774 5773 5772 5771 5771 5770 5771 5771 5771 5771 5771 5771 5771 5771 5772 5772 5771 5771 5771 5770 5770 5769 5767 5766 5765 5764 5762 5761 5759 5757 5755 5753 5751 5749
5669 5673 5676 5678 5681 5684 5687 5690 5693 5697 5700 5703 5707 5711 5714 5717 5719 5722 5724 5726 5727 5729 5732 5732 5733 5736 5740 5744 5746 5748 5750 5753 5755 5757 5758 5760 5762 5763 5765 5765 5766 5767 5767 5768 5768 5769 5770 5771 5771 5771 5771 5771 5770 5769 5769 5768 5767 5767 5767 5767 5767 5767 5767 5767 5768 5768 5768 5768 5767 5767 5767 5766 5765 5764 5763 5762 5761 5759 5758 5756 5754 5753 5751 5748 5746 5744
5666 5670 5674 5677 5680 5684 5688 5691 5694 5697 5699 5702 5705 5708 5711 5713 5716 5719 5720 5722 5724 5727 5729 5729 5731 5734 5737 5740 5743 5746 5747 5749 5751 5753 5755 5757 5759 5760 5761 5761 5762 5763 5763 5764 5765 5766 5767 5767 5768 5768 5767 5767 5767 5766 5765 5765 5764 5764 5763 5763 5763 5764 5764 5764 5764 5764 5764 5764 5763 5763 5762 5762 5761 5760 5759 5757 5756 5755 5754 5752 5750 5748 5746 5744 5742 5739
5662 5666 5671 5674 5678 5682 5686 5689 5692 5695 5698 5700 5703 5706 5708 5711 5713 5715 5717 5719 5722 5724 5726 5728 5730 5732 5735 5737 5740 5742 5744 5746 5748 5749 5751 5753 5754 5755 5756 5757 5758 5759 5760 5761 5762 5762 5763 5763 5764 5764 5764 5763 5763 5763 5762 5762 5761 5761 5760 5760 5760 5760 5760 5760 5760 5760 5760 5759 5759 5759 5758 5757 5756 5755 5754 5753 5752 5750 5749 5747 5745 5743 5741 5739 5737 5735
5660 5664 5668 5672 5675 5678 5682 5685 5689 5692 5695 5697 5700 5703 5706 5709 5711 5713 5715 5717 5719 5721 5724 5727 5729 5731 5732 5734 5736 5738 5740 5742 5744 5745 5747 5748 5750 5751 5752 5754 5755 5756 5757 5758 5758 5759 5759 5759 5760 5760 5760 5760 5760 5759 5759 5758 5758 5758 5757 5757 5757 5756 5756 5756 5756 5756 5756 5755 5755 5754 5753 5753 5752 5751 5750 5748 5747 5745 5744 5742 5740 5738 5736 5734 5732 5730
5658 5662 5666 5670 5673 5676 5679 5683 5686 5689 5692 5694 5697 5700 5703 5706 5708 5711 5713 5715 5717 5719 5722 5724 5726 5727 5729 5730 5732 5734 5736 5738 5739 5741 5743 5744 5746 5747 5749 5750 5751 5753 5754 5754 5755 5755 5755 5756 5756 5756 5757 5757 5757 5756 5756 5755 5755 5754 5754 5753 5753 5753 5753 5752 5752 5752 5752 5751 5751 5750 5749 5749 5748 5746 5745 5744 5742 5741 5739 5737 5735 5733 5731 5729 5727 5725
5656 5660 5664 5667 5670 5673 5677 5680 5683 5686 5689 5692 5694 5697 5700 5703 5705 5707 5710 5712 5714 5716 5718 5720 5722 5724 5725 5727 5728 5730 5732 5734 5736 5738 5740 5741 5742 5744 5745 5746 5748 5749 5750 5750 5751 5752 5752 5752 5752 5753 5753 5753 5753 5753 5752 5751 5751 5751 5750 5749 5749 5749 5749 5748 5748 5748 5748 5747 5747 5746 5745 5745 5743 5742 5741 5739 5738 5736 5734 5733 5731 5729 5726 5724 5722 5720
5654 5658 5661 5664 5667 5670 5674 5677 5680 5683 5686 5689 5691 5694 5697 5699 5701 5704 5706 5709 5711 5713 5715 5716 5718 5721 5722 5724 5725 5727 5729 5731 5733 5734 5736 5737 5738 5740 5741 5742 5744 5745 5745 5746 5747 5748 5748 5748 5749 5749 5749 5749 5749 5749 5748 5748 5747 5747 5746 5746 5745 5745 5745 5745 5744 5744 5744 5743 5743 5742 5741 5740 5739 5738 5736 5735 5733 5732 5730 5728 5726 5724 5722 5720 5718 5716
5652 5656 5659 5662 5665 5668 5672 5675 5678 5681 5683 5685 5688 5691 5693 5696 5698 5701 5704 5706 5708 5710 5711 5713 5716 5718 5719 5721 5722 5724 5725 5727 5729 5731 5732 5734 5735 5736 5737 5738 5740 5741 5741 5742 5743 5744 5744 5744 5745 5745 5745 5745 5745 5744 5744 5744 5743 5743 5742 5742 5742 5741 5741 5741 5741 5740 5740 5739 5739 5738 5737 5736 5735 5733 5732 5731 5729 5727 5725 5723 5721 5719 5717 5715 5713 5711
5651 5654 5658 5661 5664 5667 5670 5673 5675 5677 5679 5682 5686 5689 5691 5693 5696 5698 5701 5703 5705 5707 5708 5710 5712 5714 5715 5718 5719 5720 5722 5723 5725 5726 5728 5729 5731 5732 5733 5735 5736 5737 5737 5738 5739 5739 5740 5740 5740 5740 5740 5740 5740 5740 5740 5740 5739 5739 5739 5738 5738 5738 5737 5737 5737 5737 5736 5736 5735 5734 5733 5732 5731 5729 5728 5726 5725 5723 5721 5719 5717 5715 5713 5711 5709 5706
5650 5653 5656 5659 5662 5665 5668 5670 5671 5673 5676 5681 5684 5687 5689 5691 5693 5695 5698 5700 5702 5703 5705 5707 5709 5711 5712 5714 5716 5717 5719 5720 5721 5722 5724 5725 5727 5728 5730 5731 5732 5733 5734 5734 5735 5735 5736 5736 5736 5736 5736 5736 5736 5736 5736 5736 5735 5735 5735 5734 5734 5734 5734 5734 5733 5733 5733 5732 5731 5730 5729 5728 5727 5725 5724 5722 5720 5718 5717 5715 5713 5711 5709 5707 5705 5702
5649 5652 5655 5657 5660 5662 5664 5666 5668 5671 5675 5679 5682 5684 5687 5689 5691 5693 5695 5697 5699 5701 5702 5704 5706 5708 5709 5711 5712 5713 5715 5717 5718 5718 5720 5722 5723 5725 5726 5728 5728 5729 5729 5730 5731 5731 5732 5732 5732 5732 5732 5732 5732 5732 5732 5732 5731 5731 5731 5731 5731 5731 5731 5730 5730 5729 5729 5728 5728 5726 5725 5724 5722 5721 5719 5718 5716 5714 5713 5711 5709 5707 5705 5703 5701 5699
5648 5651 5653 5656 5657 5659 5662 5664 5667 5670 5673 5676 5679 5682 5684 5687 5689 5691 5693 5694 5696 5698 5700 5701 5703 5704 5706 5708 5709 5710 5712 5713 5713 5715 5717 5719 5720 5721 5722 5723 5724 5724 5725 5726 5727 5727 5728 5728 5728 5728 5728 5728 5728 5728 5728 5728 5728 5728 5728 5728 5727 5727 5727 5727 5726 5726 5725 5725 5724 5722 5721 5720 5718 5716 5715 5714 5712 5711 5709 5707 5705 5703 5701 5699 5697 5695
5646 5649 5652 5654 5656 5658 5660 5663 5665 5668 5670 5674 5678 5680 5682 5684 5686 5688 5690 5692 5694 5695 5697 5698 5700 5701 5702 5704 5705 5707 5708 5708 5710 5712 5714 5715 5717 5717 5718 5719 5719 5720 5721 5722 5722 5723 5723 5724 5723 5724 5724 5724 5724 5724 5724 5724 5724 5724 5724 5724 5724 5724 5723 5723 5723 5722 5722 5721 5720 5718 5717 5715 5714 5713 5711 5710 5709 5707 5705 5703 5701 5700 5697 5695 5693 5691
5645 5647 5650 5653 5655 5657 5659 5661 5662 5665 5668 5673 5675 5677 5679 5681 5683 5685 5686 5688 5691 5693 5694 5695 5696 5697 5699 5700 5701 5702 5703 5704 5707 5709 5710 5711 5712 5713 5713 5714 5715 5716 5717 5717 5718 5719 5719 5719 5719 5720 5720 5720 5721 5721 5721 5721 5721 5721 5721 5721 5721 5720 5720 5719 5719 5718 5717 5717 5715 5714 5713 5711 5710 5709 5708 5706 5705 5703 5701 5700 5698 5696 5694 5692 5689 5687
5643 5645 5647 5649 5652 5654 5657 5658 5660 5663 5666 5669 5671 5673 5675 5677 5679 5681 5683 5686 5689 5690 5690 5692 5693 5694 5695 5696 5697 5698 5700 5702 5704 5705 5705 5706 5707 5708 5709 5711 5711 5712 5713 5713 5714 5715 5715 5716 5716 5716 5716 5716 5717 5717 5717 5717 5718 5718 5718 5718 5717 5717 5716 5716 5715 5714 5714 5713 5711 5710 5709 5708 5707 5706 5704 5703 5701 5700 5698 5696 5694 5693 5690 5688 5686 5683
5641 5642 5645 5647 5650 5652 5654 5656 5658 5660 5663 5665 5668 5670 5672 5674 5675 5677 5680 5684 5686 5687 5687 5688 5689 5690 5692 5693 5694 5695 5696 5698 5698 5699 5700 5702 5703 5704 5705 5706 5707 5707 5708 5709 5710 5710 5711 5712 5712 5712 5712 5712 5713 5713 5714 5714 5714 5714 5714 5714 5714 5713 5712 5712 5711 5710 5710 5709 5708 5707 5706 5705 5704 5702 5701 5699 5698 5696 5695 5693 5691 5689 5687 5685 5682 5679
5639 5641 5642 5645 5647 5649 5651 5653 5654 5656 5658 5661 5664 5666 5668 5670 5672 5675 5679 5681 5681 5682 5684 5685 5685 5686 5688 5689 5690 5691 5692 5693 5694 5695 5696 5698 5699 5700 5701 5702 5702 5703 5704 5705 5706 5706 5707 5708 5708 5708 5708 5709 5709 5710 5711 5711 5711 5711 5711 5711 5710 5709 5708 5707 5707 5707 5706 5705 5705 5704 5703 5702 5700 5699 5698 5696 5695 5693 5692 5690 5688 5686 5683 5681 5679 5676
5638 5639 5641 5642 5644 5646 5647 5649 5651 5653 5656 5659 5662 5664 5667 5669 5671 5674 5675 5675 5676 5677 5679 5680 5681 5682 5683 5684 5686 5687 5689 5690 5690 5691 5693 5694 5696 5697 5697 5698 5698 5698 5699 5700 5701 5702 5703 5703 5704 5704 5704 5705 5706 5707 5707 5708 5707 5707 5707 5707 5706 5705 5704 5704 5703 5703 5702 5702 5701 5700 5699 5698 5697 5696 5695 5693 5692 5690 5689 5687 5685 5682 5680 5678 5675 5673
5636 5638 5639 5641 5642 5644 5646 5647 5650 5653 5656 5658 5660 5663 5665 5666 5667 5669 5669 5670 5670 5672 5673 5674 5676 5677 5678 5680 5682 5683 5685 5686 5687 5688 5689 5690 5691 5692 5693 5693 5693 5694 5695 5696 5697 5698 5699 5700 5700 5701 5701 5702 5703 5703 5704 5704 5704 5704 5703 5703 5702 5701 5701 5700 5700 5699 5699 5698 5698 5697 5696 5695 5694 5693 5692 5691 5689 5687 5686 5684 5682 5679 5677 5675 5672 5670
5634 5636 5638 5639 5641 5643 5645 5647 5649 5652 5654 5656 5658 5660 5661 5662 5663 5664 5664 5665 5666 5667 5669 5670 5671 5673 5674 5676 5678 5679 5681 5682 5683 5684 5685 5686 5687 5688 5689 5689 5689 5689 5690 5691 5693 5694 5695 5696 5697 5697 5698 5699 5699 5700 5700 5701 5700 5700 5699 5699 5699 5698 5697 5696 5696 5696 5696 5695 5694 5694 5693 5692 5691 5690 5689 5688 5686 5684 5683 5681 5679 5676 5674 5672 5669 5667
5632 5634 5636 5637 5639 5641 5643 5645 5647 5649 5652 5653 5655 5656 5657 5657 5658 5659 5660 5661 5662 5663 5664 5666 5667 5669 5671 5672 5674 5675 5676 5677 5678 5680 5681 5682 5683 5684 5685 5685 5686 5686 5687 5688 5690 5691 5692 5693 5693 5694 5695 5696 5696 5696 5696 5696 5696 5695 5695 5695 5695 5694 5694 5693 5693 5693 5692 5692 5691 5691 5690 5689 5688 5688 5686 5685 5683 5681 5680 5678 5676 5674 5671 5669 5667 5665
5630 5632 5633 5634 5636 5638 5640 5642 5645 5646 5648 5650 5651 5652 5653 5653 5654 5655 5656 5658 5659 5660 5660 5661 5663 5665 5666 5668 5670 5671 5672 5673 5674 5675 5677 5678 5679 5681 5682 5682 5683 5684 5685 5686 5686 5687 5688 5689 5690 5691 5692 5692 5692 5693 5693 5692 5692 5692 5692 5692 5691 5691 5691 5690 5690 5689 5689 5689 5688 5688 5687 5687 5686 5685 5683 5682 5680 5678 5676 5675 5673 5671 5669 5667 5665 5663
5627 5629 5630 5632 5634 5636 5638 5640 5642 5643 5645 5646 5647 5648 5649 5649 5650 5652 5653 5654 5655 5656 5657 5658 5659 5661 5663 5664 5665 5666 5668 5669 5670 5671 5673 5674 5676 5677 5678 5679 5680 5681 5682 5683 5683 5684 5685 5686 5686 5687 5688 5688 5689 5689 5689 5688 5688 5688 5688 5688 5688 5688 5688 5687 5687 5686 5686 5686 5686 5685 5684 5684 5683 5682 5680 5679 5677 5675 5673 5672 5670 5669 5667 5665 5663 5661
5625 5627 5628 5630 5631 5633 5635 5637 5639 5640 5641 5642 5643 5644 5645 5646 5647 5648 5649 5651 5652 5653 5654 5655 5656 5658 5659 5660 5661 5662 5664 5665 5666 5668 5669 5671 5672 5674 5675 5676 5677 5678 5679 5679 5680 5681 5682 5682 5683 5684 5684 5685 5685 5685 5685 5685 5685 5685 5685 5685 5685 5685 5685 5684 5684 5684 5684 5683 5683 5682 5682 5681 5680 5679 5677 5676 5674 5672 5671 5669 5668 5667 5665 5663 5661 5659
5623 5624 5626 5627 5628 5630 5631 5632 5634 5635 5636 5638 5639 5640 5641 5642 5643 5644 5646 5647 5648 5649 5651 5652 5653 5655 5656 5657 5658 5659 5660 5662 5663 5665 5666 5668 5669 5671 5672 5673 5675 5676 5676 5676 5677 5677 5677 5678 5679 5680 5680 5681 5681 5682 5682 5682 5681 5681 5682 5682 5682 5682 5682 5682 5681 5681 5681 5681 5680 5680 5679 5678 5677 5676 5674 5673 5671 5670 5668 5667 5666 5664 5663 5661 5659 5657
5620 5621 5622 5623 5625 5626 5627 5628 5629 5631 5633 5634 5636 5637 5638 5639 5640 5641 5643 5644 5645 5647 5648 5649 5650 5652 5653 5654 5655 5656 5658 5659 5660 5662 5663 5665 5666 5668 5669 5670 5672 5673 5673 5673 5673 5673 5673 5674 5676 5677 5677 5678 5678 5678 5679 5679 5679 5679 5679 5679 5680 5680 5680 5679 5679 5678 5678 5678 5677 5677 5676 5675 5674 5673 5672 5670 5669 5667 5666 5665 5664 5662 5661 5659 5657 5655